Location: ??????
(41.3164°N, 22.6615°E)
Time: 00:50:15
(UTC+00:00)

Oscar 19 - Pass Details

Date: 30 June 2022
Orbit: 773 x 790 km, 98.8° (Epoch: 16 August)

Event Time Altitude Azimuth Distance (km) Brightness Sun altitude
Rises 00:57:53 0° 29° (NNE) 3,259 15.6 -17.3°
Reaches altitude 10° 01:00:46 10° 45° (NE) 2,325 14.4 -17.0°
Maximum altitude 01:04:36 21° 94° (E) 1,684 12.7 -16.6°
Drops below altitude 10° 01:08:24 10° 142° (SE) 2,313 12.9 -16.1°
Enters shadow 01:10:52 - 157° (SSE) 3,109 13.5 -15.8°
